EN

Hourly Weather Banbridge

Today, 7 March, Sunday

Time Temperature Precipitation Wind Pressure Humidity
00:00 -1°C° 0 mm 2 mps 765 mmHg 90%
01:00 -1°C° 0 mm 2 mps 765 mmHg 90%
02:00 +1°C° 0 mm 1 mps 764 mmHg 90%
03:00 +1°C° 0 mm 1 mps 764 mmHg 90%
04:00 +1°C° 0 mm 1 mps 763 mmHg 90%
05:00 +1°C° 0 mm 1 mps 763 mmHg 91%
06:00 +1°C° 0 mm 1 mps 763 mmHg 91%
07:00 +2°C° 0 mm 1 mps 763 mmHg 87%
08:00 +2°C° 0 mm 2 mps 763 mmHg 83%
09:00 +3°C° 0 mm 2 mps 763 mmHg 80%
10:00 +5°C° 0 mm 2 mps 763 mmHg 75%
11:00 +6°C° 0 mm 2 mps 763 mmHg 71%
12:00 +8°C° 0 mm 2 mps 763 mmHg 66%
13:00 +9°C° 0 mm 3 mps 762 mmHg 67%
14:00 +9°C° 0 mm 3 mps 762 mmHg 67%
15:00 +10°C° 0 mm 3 mps 761 mmHg 67%
16:00 +8°C° 0 mm 3 mps 761 mmHg 75%
17:00 +7°C° 0 mm 2 mps 761 mmHg 82%
18:00 +6°C° 0 mm 2 mps 760 mmHg 89%
19:00 +6°C° 0.1 mm 2 mps 761 mmHg 91%
20:00 +6°C° 0.1 mm 2 mps 761 mmHg 93%
21:00 +6°C° 0.1 mm 2 mps 761 mmHg 94%
22:00 +5°C° 0.1 mm 2 mps 761 mmHg 95%
23:00 +5°C° 0.1 mm 2 mps 760 mmHg 95%

Tomorrow, 8 March, Monday

Time Temperature Precipitation Wind Pressure Humidity
00:00 +4°C° 0.1 mm 3 mps 760 mmHg 95%
01:00 +4°C° 0 mm 3 mps 760 mmHg 95%
02:00 +3°C° 0 mm 3 mps 759 mmHg 95%
03:00 +3°C° 0 mm 3 mps 759 mmHg 95%
04:00 +2°C° 0 mm 3 mps 759 mmHg 95%
05:00 +2°C° 0 mm 3 mps 759 mmHg 96%
06:00 +2°C° 0 mm 3 mps 759 mmHg 96%
07:00 +3°C° 0 mm 3 mps 759 mmHg 94%
08:00 +4°C° 0 mm 3 mps 759 mmHg 92%
09:00 +4°C° 0 mm 3 mps 759 mmHg 90%
10:00 +5°C° 0 mm 3 mps 759 mmHg 86%
11:00 +6°C° 0 mm 4 mps 759 mmHg 82%
12:00 +7°C° 0 mm 4 mps 758 mmHg 79%
13:00 +8°C° 0 mm 4 mps 758 mmHg 78%
14:00 +8°C° 0 mm 4 mps 758 mmHg 78%
15:00 +8°C° 0 mm 4 mps 757 mmHg 77%
16:00 +8°C° 0 mm 3 mps 757 mmHg 81%
17:00 +7°C° 0 mm 3 mps 757 mmHg 84%
18:00 +7°C° 0 mm 2 mps 757 mmHg 87%
19:00 +6°C° 0 mm 2 mps 757 mmHg 89%
20:00 +6°C° 0 mm 2 mps 757 mmHg 91%
21:00 +5°C° 0 mm 2 mps 757 mmHg 93%
22:00 +5°C° 0 mm 2 mps 757 mmHg 94%
23:00 +5°C° 0 mm 2 mps 756 mmHg 95%

Day after tomorrow, 9 March, Tuesday

Time Temperature Precipitation Wind Pressure Humidity
00:00 +5°C° 0 mm 2 mps 756 mmHg 95%
01:00 +4°C° 0 mm 3 mps 756 mmHg 95%
02:00 +5°C° 0 mm 3 mps 755 mmHg 95%
03:00 +5°C° 0 mm 3 mps 755 mmHg 95%
04:00 +5°C° 0 mm 3 mps 755 mmHg 95%
05:00 +5°C° 0 mm 3 mps 755 mmHg 95%
06:00 +4°C° 0 mm 3 mps 754 mmHg 95%
07:00 +5°C° 0 mm 3 mps 754 mmHg 94%
08:00 +5°C° 0 mm 3 mps 754 mmHg 92%
09:00 +5°C° 0 mm 4 mps 753 mmHg 91%
10:00 +6°C° 0 mm 4 mps 753 mmHg 88%
11:00 +7°C° 0 mm 5 mps 752 mmHg 85%
12:00 +8°C° 0 mm 6 mps 751 mmHg 82%
13:00 +8°C° 0 mm 6 mps 750 mmHg 81%
14:00 +8°C° 0 mm 7 mps 749 mmHg 80%
15:00 +8°C° 0 mm 7 mps 748 mmHg 80%
16:00 +7°C° 0.2 mm 8 mps 747 mmHg 82%
17:00 +7°C° 0.2 mm 8 mps 746 mmHg 84%
18:00 +6°C° 0.2 mm 9 mps 744 mmHg 86%
19:00 +6°C° 1.3 mm 9 mps 743 mmHg 88%
20:00 +6°C° 1.3 mm 10 mps 743 mmHg 91%
21:00 +6°C° 1.3 mm 10 mps 742 mmHg 93%
22:00 +6°C° 0.3 mm 9 mps 742 mmHg 93%
23:00 +7°C° 0.3 mm 8 mps 742 mmHg 93%

10 March, Wednesday

Time Temperature Precipitation Wind Pressure Humidity
00:00 +8°C° 0.3 mm 7 mps 742 mmHg 93%
01:00 +5°C° 0 mm 6 mps 742 mmHg 92%
02:00 +5°C° 0 mm 5 mps 742 mmHg 91%
03:00 +3°C° 0 mm 4 mps 742 mmHg 90%
04:00 +3°C° 0 mm 4 mps 743 mmHg 91%
05:00 +2°C° 0 mm 3 mps 743 mmHg 91%
06:00 +2°C° 0 mm 3 mps 743 mmHg 91%
07:00 +1°C° 0 mm 4 mps 742 mmHg 89%
08:00 +3°C° 0 mm 4 mps 742 mmHg 87%
09:00 +4°C° 0 mm 4 mps 741 mmHg 85%
10:00 +3°C° 0.9 mm 5 mps 739 mmHg 88%
11:00 +4°C° 0.9 mm 6 mps 738 mmHg 92%
12:00 +4°C° 0.9 mm 6 mps 736 mmHg 95%
13:00 +6°C° 1.1 mm 7 mps 734 mmHg 95%
14:00 +7°C° 1.1 mm 8 mps 732 mmHg 95%
15:00 +10°C° 1.1 mm 8 mps 731 mmHg 95%
16:00 +8°C° 0.2 mm 9 mps 730 mmHg 91%
17:00 +8°C° 0.2 mm 9 mps 729 mmHg 87%
18:00 +7°C° 0.2 mm 10 mps 728 mmHg 83%
19:00 +6°C° 0.1 mm 10 mps 727 mmHg 84%
20:00 +6°C° 0.1 mm 11 mps 726 mmHg 85%
21:00 +4°C° 0.1 mm 11 mps 725 mmHg 86%
22:00 +4°C° 0.3 mm 12 mps 724 mmHg 86%
23:00 +5°C° 0.3 mm 12 mps 724 mmHg 86%

11 March, Thursday

Time Temperature Precipitation Wind Pressure Humidity
00:00 +5°C° 0.3 mm 13 mps 723 mmHg 86%
01:00 +4°C° 0.3 mm 12 mps 725 mmHg 86%
02:00 +3°C° 0.3 mm 11 mps 727 mmHg 86%
03:00 +1°C° 0.3 mm 9 mps 729 mmHg 87%
04:00 +1°C° 0 mm 9 mps 730 mmHg 86%
05:00 +1°C° 0 mm 8 mps 731 mmHg 84%
06:00 +2°C° 0 mm 7 mps 732 mmHg 83%
07:00 +1°C° 0 mm 8 mps 732 mmHg 81%
08:00 +2°C° 0 mm 8 mps 733 mmHg 79%
09:00 +2°C° 0 mm 8 mps 734 mmHg 77%
10:00 +2°C° 0.2 mm 9 mps 734 mmHg 76%
11:00 +3°C° 0.2 mm 10 mps 735 mmHg 75%
12:00 +3°C° 0.2 mm 11 mps 736 mmHg 74%
13:00 +5°C° 0.2 mm 10 mps 737 mmHg 72%
14:00 +5°C° 0.2 mm 10 mps 737 mmHg 70%
15:00 +5°C° 0.2 mm 10 mps 738 mmHg 68%
16:00 +3°C° 0.1 mm 9 mps 739 mmHg 70%
17:00 +2°C° 0.1 mm 8 mps 739 mmHg 72%
18:00 +3°C° 0.1 mm 7 mps 740 mmHg 73%
19:00 +2°C° 0 mm 7 mps 741 mmHg 76%
20:00 +2°C° 0 mm 7 mps 741 mmHg 78%
21:00 0°C° 0 mm 7 mps 742 mmHg 81%
22:00 +2°C° 0 mm 7 mps 742 mmHg 81%
23:00 +1°C° 0 mm 8 mps 742 mmHg 82%

12 March, Friday

Time Temperature Precipitation Wind Pressure Humidity
00:00 +1°C° 0 mm 8 mps 742 mmHg 82%
01:00 +1°C° 0 mm 8 mps 741 mmHg 82%
02:00 +1°C° 0 mm 8 mps 741 mmHg 82%
03:00 +1°C° 0 mm 8 mps 740 mmHg 82%
04:00 +1°C° 0.2 mm 8 mps 740 mmHg 82%
05:00 +1°C° 0.2 mm 8 mps 740 mmHg 83%
06:00 +2°C° 0.2 mm 7 mps 739 mmHg 84%
07:00 +1°C° 0 mm 8 mps 739 mmHg 81%
08:00 +1°C° 0 mm 8 mps 739 mmHg 79%
09:00 +2°C° 0 mm 8 mps 739 mmHg 77%
10:00 +2°C° 0.1 mm 8 mps 739 mmHg 74%
11:00 +4°C° 0.1 mm 8 mps 740 mmHg 71%
12:00 +4°C° 0.1 mm 8 mps 740 mmHg 69%
13:00 +4°C° 0.2 mm 8 mps 740 mmHg 70%
14:00 +4°C° 0.2 mm 8 mps 739 mmHg 71%
15:00 +4°C° 0.2 mm 8 mps 739 mmHg 72%
16:00 +3°C° 0.1 mm 7 mps 739 mmHg 76%
17:00 +3°C° 0.1 mm 6 mps 738 mmHg 80%
18:00 +2°C° 0.1 mm 5 mps 738 mmHg 84%
19:00 +1°C° 0 mm 5 mps 738 mmHg 86%
20:00 +1°C° 0 mm 5 mps 738 mmHg 88%
21:00 0°C° 0 mm 5 mps 738 mmHg 90%
22:00 0°C° 0 mm 5 mps 738 mmHg 89%
23:00 0°C° 0 mm 5 mps 738 mmHg 88%
Show more

We Need Your Consent

Meteoprog and our Service Providers may store and access personal data such as cookies, device identifiers or other similar technologies on your device and process such data to personalise content and ads, as well as provide social media features and to analyse the traffic.

  • Store and/or access information on your device

    Cookies, device identifiers or other information can be stored or accessed on your device for the purposes indicated above.

  • Personalised ads and content, ad and content measurement, audience insights, and products development

    Ads and content can be personalised based on a profile. More data can be added to better personalise ads and content. Ad and content performance can be measured. Insights about the audience who saw the ads and content can be derived. Such data can be used to develop or improve user’s experience, systems and software.

By clicking ‘I Agree’ you will allow the use of indicated cookies, device identifiers, web beacons or other similar technologies. Your settings can be changed in the browser on your device.

For certain purposes, legitimate interests may be relied on, rather than consent. You can read more about this in our Privacy and Cookie Policy.